星链-30273 (STARLINK-30273 )

导读

STARLINK-30273是美国太空探索技术公司(SpaceX)星链(Starlink)星座的一颗卫星,于2023年8月22日发射入轨,属于星链第二代低轨卫星部署批次,承担全球宽带互联网接入服务,可为民用、应急通信等场景提供低延迟网络支持,是星链大规模组网建设中的组成单元,助力星链实现全球覆盖与服务拓展。

Basic Information
目录编号:
57681
目录名称:
STARLINK-30273
国际标识:
2023-124U
轨道中心:
EARTH
卫星名称:
星链-30273
卫星全名:
星链-30273 (STARLINK-30273 )
卫星状态:
在轨 (已飞行1109 天)
发射日期:
2023-08-22 UTC
国别 :
美国 (US)
星等 :
--
Orbit Information
数据来源 国际轨道数据 AOE轨道数据
星历时间 2026-09-03T15:13:30+0800
21小时前
查看轨道信息
2026-09-03T21:00:00+0800
15小时前
查看轨道信息
半长轴 6834.793km 6834.815km
偏心率 0.0001908 0.0002281
轨道倾角 53.154° 53.156°
近地点辐角 171.713° 133.923°
升交点赤经 99.905° 98.781°
平近点角 188.390° 117.809°
近地点 455.351km 455.118km
远地点 457.961km 458.238km
周期 93.723分钟 93.724分钟
每日圈数 15.364371 15.364295
Detailed Information
固有亮度:
5
最大亮度:
0.3
卫星平台:
Starlink v2.0 mini
覆盖范围:
全球
运营商:
太空探索技术公司
运营商所在国:
美国
制造商(研发单位):
太空探索技术公司
制造商所在国:
美国
使用方式:
暂无
Satellite Introduction
星链(Starlink)计划是由太空探索技术公司(SpaceX)提出的一个巨型低轨卫星互联网星座项目,计划在2019年至2024年间在太空搭建由约1.2万颗卫星组成的“星链”网络,其中1584颗将部署在地球上空550千米处的近地轨道,并从2020年开始工作。该卫星仍在工作。
2D Orbit Map
3D Orbit Map
Orbit Altitude Analysis Chart
Orbit Inclination Analysis Chart
Orbit Comprehensive Analysis Chart
View Comprehensive Chart
Conjunction Data List
Event ID Objects TCA Miss Dist (km) Collision Risk Probability Collision Risk Index (CRI) Action
CDM_260904-091505-768106-961321
2026-09-04T
09:15:09+0000
1.097 km
极远距离
1.247726E-5 中风险 0.57
CDM_260830-200805-360805-768122
2026-08-30T
20:08:49+0000
1.441 km
极远距离
3.686352E-6 低风险 0.46
CDM_260830-192105-360805-768121
2026-08-30T
19:21:58+0000
2.162 km
极远距离
1.230312E-6 低风险 0.37